TimeEST,TemperatureF,Dew PointF,Humidity,Sea Level PressureIn,VisibilityMPH,Wind Direction,Wind SpeedMPH,Gust SpeedMPH,PrecipitationIn,Events,Conditions,WindDirDegrees,DateUTC
12:56 AM,33.1,16.0,50,30.00,10.0,WNW,12.7,23.0,N/A,,Clear,290,2013-01-05 05:56:00
1:56 AM,32.0,16.0,52,30.02,10.0,WNW,15.0,25.3,N/A,,Clear,290,2013-01-05 06:56:00
2:56 AM,33.1,16.0,50,30.04,10.0,West,9.2,19.6,N/A,,Clear,270,2013-01-05 07:56:00
3:56 AM,33.1,17.1,52,30.05,10.0,WSW,8.1,-,N/A,,Overcast,250,2013-01-05 08:56:00
4:56 AM,33.1,18.0,54,30.07,10.0,WSW,5.8,-,N/A,,Overcast,250,2013-01-05 09:56:00
5:56 AM,33.1,18.0,54,30.11,10.0,West,9.2,17.3,N/A,,Mostly Cloudy,270,2013-01-05 10:56:00
6:56 AM,33.8,19.4,56,30.12,10.0,West,10.4,-,N/A,,Mostly Cloudy,270,2013-01-05 11:56:00
7:56 AM,33.8,19.4,56,30.16,10.0,West,8.1,-,N/A,,Scattered Clouds,280,2013-01-05 12:56:00
8:56 AM,35.6,21.2,56,30.18,10.0,WNW,16.1,25.3,N/A,,Clear,290,2013-01-05 13:56:00
9:56 AM,37.9,21.9,53,30.24,10.0,WNW,15.0,24.2,N/A,,Clear,300,2013-01-05 14:56:00
10:56 AM,37.9,21.0,51,30.25,10.0,WNW,12.7,26.5,N/A,,Partly Cloudy,290,2013-01-05 15:56:00
11:56 AM,39.9,21.9,49,30.22,10.0,WNW,17.3,27.6,N/A,,Partly Cloudy,300,2013-01-05 16:56:00
12:56 PM,39.9,21.0,47,30.20,10.0,NNW,13.8,26.5,N/A,,Clear,330,2013-01-05 17:56:00
1:56 PM,41.0,21.0,45,30.22,10.0,WNW,13.8,17.3,N/A,,Clear,300,2013-01-05 18:56:00
2:56 PM,39.9,19.9,45,30.22,10.0,WNW,9.2,-,N/A,,Clear,290,2013-01-05 19:56:00
3:56 PM,39.0,19.9,46,30.23,10.0,WNW,5.8,-,N/A,,Clear,290,2013-01-05 20:56:00
5:56 PM,32.0,21.0,64,30.26,10.0,Calm,Calm,-,N/A,,Clear,0,2013-01-05 22:56:00
6:56 PM,30.2,21.2,69,30.24,10.0,Calm,Calm,-,N/A,,Clear,0,2013-01-05 23:56:00
7:56 PM,30.0,21.9,72,30.26,10.0,Calm,Calm,-,N/A,,Clear,0,2013-01-06 00:56:00
8:56 PM,27.0,19.9,75,30.24,10.0,NW,4.6,-,N/A,,Clear,320,2013-01-06 01:56:00
9:56 PM,26.1,21.0,81,30.24,10.0,Calm,Calm,-,N/A,,Clear,0,2013-01-06 02:56:00
10:56 PM,30.0,21.9,72,30.21,10.0,Calm,Calm,-,N/A,,Mostly Cloudy,0,2013-01-06 03:56:00
11:56 PM,30.9,24.1,76,30.19,10.0,WNW,3.5,-,N/A,,Mostly Cloudy,300,2013-01-06 04:56:00